Find Starlink 35737

NORAD ID: 66219 Int'l Des: 2025-244 Owner: SPXS Country: US Constellation: starlink operational
LEOCIRCULAR

現在のビュー

3D地球を読み込み中...

About Starlink 35737

Starlink 35737 (NORAD 66219) is a starlink constellation satellite (v2 mini) launched Oct 28, 2025 by SPXS of US. It operates in LEO, CIRCULAR orbit with a mass of 575.00 kg.

次回通過

Passes for default location (London). Set your location on the main map for personalized predictions.

高度履歴

Loading altitude history...

軌道要素

1 66219U 25244P 26263.88620636 .00019285 00000-0 58024-3 0 9996
2 66219 53.1580 39.7934 0000893 87.4333 272.6771 15.34409785 51599
Epoch: Sep 20, 2026 • Age: 7 hours

現在のステータス

高度 478.4 km
遠地点 / 近地点 N/A
速度 7.63 km/s
衛星直下点 -44.86°S, 162.4°W
打ち上げ日 Oct 28, 2025
運用期間 0.8 years
タイプ internet

技術仕様

分類 Payload
質量 575.00 kg
乾燥質量 530.00 kg
長さ 0.30 m
スパン 29.00 m
形状 ? Box + pan
製造者 SPXS
バスタイプ Starlink V2MO
フェーズステータス In Orbit
所有者/国 SPXS/US

Most Searched